Reflectivity
-20 -20 -20 -20 -20 -20 -20 -20 -20 -20 -20 -20 -20 -20 -20 -18 -8 -20 -20 -20 -20 -20
-20 -20 -20 -20 -20 -20 -20 -20 -20 -20 -20 -20 -20 -20 -20 -20 -17 -18 -9 -20 -2 -20
-20 -20 -20 -20 -20 -20 -20 -20 -20 -20 -20 -20 -20 -20 -20 -20 -20 7 -20 -20 -20 -20
-20 -20 -20 -20 -20 -20 -20 -20 -20 -20 -20 -20 -20 -20 -20 -20 -20 1 4 -19 -20 -20
-20 -20 -20 -20 -20 -20 -20 -20 -20 -20 -20 -20 -20 -20 -20 -20 -20 -20 -19 -19 -20 -20
-20 -20 -20 -20 -20 -20 -20 -20 -20 -20 -20 -20 -20 -20 -20 -20 -20 -20 -20 -20 -20 -20
-20 -20 -20 -20 -20 -20 -20 -20 -20 -20 -20 -20 -20 -20 -20 -20 -20 -20 -20 -20 -20 -20
-20 -20 -20 -20 -20 -20 -20 -20 -20 -20 -20 -20 -20 -20 -20 -20 -20 -20 -20 -20 -20 -20
-20 -20 -20 -20 -20 -20 -20 -20 -20 -20 -20 -20 -20 -20 -20 -20 -20 -20 -20 -20 -20 -20
-20 -20 -20 -20 -20 -20 -20 -20 -20 -20 -20 -20 -20 -20 -20 -20 -20 -20 -20 -20 -20 -20
-20 -20 -20 -20 -20 -20 -20 -20 -20 -20 -20 -20 -20 -20 -20 -20 -20 -20 -20 -20 -20 -20
-20 -20 -20 -20 -20 -20 -20 -20 -20 -20 -20 -20 -20 -20 -20 -20 -20 -20 -20 -20 -20 -20
-20 -20 -20 -20 -20 -20 -20 -20 -20 -20 -20 -20 -20 -20 -20 -6 -20 -20 -20 -20 -20 -20
-20 -20 -20 -20 -20 -20 -20 -20 -20 -20 -20 -20 -20 -20 -20 -20 -20 -20 -20 -20 -20 -20
Wind_Speed
17 13 13 13 10 10 9 8 8 11 10 10 9 8 7 7 7 6 6 7 6 5
17 17 14 13 13 10 9 8 9 11 12 11 11 10 8 7 7 5 7 7 7 7
19 17 16 13 13 13 12 12 10 11 13 12 12 11 10 8 8 8 7 7 7 7
19 19 17 16 15 14 13 12 13 12 13 13 12 12 11 10 8 10 9 8 8 9
19 18 19 17 17 15 15 15 14 13 13 13 13 12 13 13 11 12 11 11 10 11
21 20 19 18 18 16 16 16 15 14 14 14 14 13 13 13 13 12 12 12 12 12
22 21 20 18 17 18 16 17 16 15 15 15 15 14 14 14 13 13 13 13 13 13
20 20 19 18 17 18 17 17 17 16 16 15 15 13 16 15 14 14 13 13 13 14
19 19 19 18 18 17 17 17 16 17 17 17 13 14 14 14 14 14 14 14 14 14
19 19 19 19 18 18 18 17 17 17 17 17 17 13 14 15 16 14 14 14 14 13
19 19 18 18 19 18 17 17 16 17 16 16 15 14 15 15 17 15 16 15 15 15
21 20 20 19 19 17 16 16 16 16 17 17 16 16 17 15 16 17 17 16 17 16
20 20 20 19 19 17 15 17 15 17 17 18 17 14 16 17 13 15 14 14 15 15
19 19 17 16 16 16 16 15 15 15 15 16 17 16 18 20 16 14 13 13 13 13
Wind_Direction
205 211 214 207 226 215 225 213 203 193 212 212 201 206 193 194 216 188 212 214 248 260
202 217 213 220 208 224 224 231 221 210 213 213 211 207 195 227 197 212 216 205 219 243
205 207 220 215 221 221 224 222 231 211 215 212 209 207 204 211 203 215 218 225 209 238
205 208 210 218 217 219 225 218 220 213 213 210 209 205 204 225 233 209 221 237 228 225
202 206 208 213 217 213 216 219 220 212 213 216 217 211 209 213 221 222 226 227 229 231
203 203 206 207 213 209 212 217 219 213 214 217 219 215 215 216 221 227 228 228 227 230
198 202 205 204 204 207 208 213 216 214 214 219 223 221 221 218 225 229 230 231 231 232
197 199 200 200 200 204 205 210 212 209 214 217 222 222 220 224 226 228 234 236 233 232
192 194 196 196 197 198 205 209 209 211 211 215 222 215 211 223 227 229 232 238 238 243
191 194 194 194 194 197 202 205 209 212 212 214 220 214 201 201 231 234 232 238 243 245
191 194 193 194 196 196 200 204 205 210 214 217 218 204 198 195 223 234 243 246 242 243
190 192 192 196 195 197 201 203 207 210 212 216 224 197 195 188 225 234 239 243 245 246
189 191 194 191 192 194 199 205 208 211 212 216 223 199 194 193 228 232 238 237 239 234
191 190 192 192 191 190 197 202 208 211 214 217 215 223 187 190 222 235 231 238 242 240